General Aviation Weather

Text Reports

Enter one or more of the following location identifiers separated by a space:

Zip Code, Four-Character ICAO or Three-Character IATA airport codes.

METAR - Aviation Routine Weather Report
KY63 - Elbow Lake, Minnesota
Updated at 2:33 PM GMT on May 05, 2015 (9:33 AM CDT):
METAR KY63 051433Z AUTO 12012G16KT 10SM CLR 17/M03 A3017 RMK AO2 T01711026
TAF - Terminal Area Forecast
KY63 - Elbow Lake, Minnesota
Updated at 2:33 PM GMT on May 05, 2015 (9:33 AM CDT):
No TAF is currently available for this location.
Decoded:
No decoded TAF is available.
PIREP - Pilot Weather Report
KY63 - Elbow Lake, Minnesota
Updated at 2:33 PM GMT on May 05, 2015 (9:33 AM CDT):
No PIREP is currently available for this location.
AIRMET - Airmens Meteorological Information
KY63 - Elbow Lake, Minnesota
Updated at 2:33 PM GMT on May 05, 2015 (9:33 AM CDT):
No AIRMET is currently available for this location.
SIGMET - Significant Meteorological Information
KY63 - Elbow Lake, Minnesota
Updated at 2:33 PM GMT on May 05, 2015 (9:33 AM CDT):
No SIGMET is currently available for this location.
NOTAM - Notice to Airmen
KY63 - Elbow Lake, Minnesota
Updated at 2:33 PM GMT on May 05, 2015 (9:33 AM CDT):
No NOTAM is currently available for this location.
Forecast Area
KY63 - Elbow Lake, Minnesota
Updated at 2:33 PM GMT on May 05, 2015 (9:33 AM CDT):
No NOTAM is currently available for this location.
Aviation Weather Maps